Weather reports worldwide

Advertisment
Leucate/Semaphore, France (7666): temperature & dewpoint: 20.03.2019 08:00:00 - 26.03.2019 08:00:00 (CET)Leucate/Semaphore, France (7666): wind speed & gusts: 20.03.2019 08:00:00 - 26.03.2019 08:00:00 (CET)Leucate/Semaphore, France (7666): wind direction: 20.03.2019 08:00:00 - 26.03.2019 08:00:00 (CET)Leucate/Semaphore, France (7666): reduced air pressure: 20.03.2019 08:00:00 - 26.03.2019 08:00:00 (CET)Leucate/Semaphore, France (7666): visibility: 20.03.2019 08:00:00 - 26.03.2019 08:00:00 (CET)Leucate/Semaphore, France (7666): precipitation: 20.03.2019 08:00:00 - 26.03.2019 08:00:00 (CET)
Date & Time tt [°C] td [°C] ff [km/h] ff [kn] fx [km/h] fx [kn] dd ppp [hPa] vv [km] rr [mm]
26.03.2019 08:00:00 - - - - - - - - - -
26.03.2019 07:00:00 8,7 -4,5 40 21 85 46 NW 1021,9 20 0,0
26.03.2019 06:00:00 8,1 -4,1 38 20 73 39 NW 1021,4 - 0,0
26.03.2019 05:00:00 8,5 -4,4 29 16 64 34 NW 1022,7 - 0,0
26.03.2019 04:00:00 9,0 -4,2 29 15 67 36 NW 1022,1 16 0,0
26.03.2019 03:00:00 9,5 -4,5 27 15 64 35 NW 1021,5 - 0,0
26.03.2019 02:00:00 10,2 -5,4 27 14 69 37 NW 1022,3 - 0,0
26.03.2019 01:00:00 10,2 -3,5 29 16 56 30 NW 1022,0 - 0,0
26.03.2019 00:00:00 11,2 -2,6 25 13 59 32 NNW 1021,8 - 0,0
25.03.2019 23:00:00 12,1 -1,1 32 17 60 32 NNW 1021,3 - 0,0
25.03.2019 22:00:00 13,9 0,5 31 17 70 38 NW 1020,1 - 0,0
25.03.2019 21:00:00 14,5 0,7 37 20 82 45 NW 1019,0 - 0,0
25.03.2019 20:00:00 14,8 0,6 37 20 81 44 NW 1018,1 - 0,0
25.03.2019 19:00:00 15,2 2,0 39 21 76 41 NW 1017,8 12 0,0
25.03.2019 18:00:00 15,9 1,9 34 18 80 43 NW 1018,1 - 0,0
25.03.2019 17:00:00 16,3 1,9 37 20 86 47 NW 1018,3 - 0,0
25.03.2019 16:00:00 16,6 1,8 36 19 85 46 NW 1018,7 12 0,0
25.03.2019 15:00:00 16,7 1,9 40 22 91 49 NW 1019,1 - 0,0
25.03.2019 14:00:00 16,3 1,9 48 26 87 47 NW 1019,3 - 0,0
25.03.2019 13:00:00 16,8 2,8 38 21 76 41 NW 1020,1 16 0,0
25.03.2019 12:00:00 16,1 2,8 42 23 80 43 NW 1020,6 - 0,0
25.03.2019 11:00:00 15,4 2,9 37 20 76 41 NW 1021,1 - 0,0
25.03.2019 10:00:00 14,7 3,2 31 17 66 36 NW 1021,5 18 0,0
25.03.2019 09:00:00 13,9 2,5 28 15 56 30 NW 1021,5 - 0,0
25.03.2019 08:00:00 13,4 1,4 22 12 52 28 NW 1021,3 - 0,0
25.03.2019 07:00:00 13,2 0,6 19 11 37 20 NW 1021,0 18 0,0
25.03.2019 06:00:00 13,9 0,5 24 13 51 28 NW 1020,5 - 0,0
25.03.2019 05:00:00 13,8 0,8 23 13 46 25 NW 1020,3 - 0,0
25.03.2019 04:00:00 14,2 1,1 20 11 40 22 NW 1020,6 18 0,0
25.03.2019 03:00:00 15,0 0,8 21 12 40 22 NW 1020,9 - 0,0
25.03.2019 02:00:00 14,8 1,0 15 8 32 17 NW 1021,2 - 0,0
25.03.2019 01:00:00 15,8 0,7 18 10 35 19 NW 1021,3 - 0,0
25.03.2019 00:00:00 16,6 0,7 18 10 36 19 NW 1021,2 - 0,0
24.03.2019 23:00:00 18,0 0,6 23 13 47 26 WNW 1020,9 - 0,0
24.03.2019 22:00:00 18,9 0,5 28 15 45 24 WNW 1020,9 - 0,0
24.03.2019 21:00:00 19,0 -0,4 20 11 37 20 WNW 1021,0 - 0,0
24.03.2019 20:00:00 19,4 0,4 19 11 37 20 NW 1020,7 - 0,0
24.03.2019 19:00:00 20,9 0,7 23 12 44 24 WNW 1020,2 18 0,0
24.03.2019 18:00:00 23,1 0,2 26 14 47 26 WNW 1020,0 - 0,0
24.03.2019 17:00:00 24,6 0,8 20 11 37 20 NW 1020,0 - 0,0
24.03.2019 16:00:00 16,5 9,2 21 11 32 18 S 1020,6 18 0,0
24.03.2019 15:00:00 18,0 8,5 14 8 35 19 S 1021,1 - 0,0
24.03.2019 14:00:00 22,1 3,7 10 5 31 17 N 1021,5 - 0,0
24.03.2019 13:00:00 18,9 7,9 4 2 10 5 ENE 1022,8 20 0,0
24.03.2019 12:00:00 16,8 8,2 6 4 12 7 SE 1023,3 - 0,0
24.03.2019 11:00:00 15,8 6,5 6 3 12 6 E 1023,6 - 0,0
24.03.2019 10:00:00 15,1 7,9 5 3 9 5 SE 1023,5 20 0,0
24.03.2019 09:00:00 14,3 7,1 8 4 13 7 S 1023,4 - 0,0
24.03.2019 08:00:00 14,4 6,2 4 2 6 3 S 1023,3 - 0,0
24.03.2019 07:00:00 12,6 6,8 3 2 8 4 S 1023,0 - 0,0
24.03.2019 06:00:00 13,8 4,1 3 1 10 6 NNE 1022,8 - 0,0
24.03.2019 05:00:00 12,7 4,1 9 5 13 7 NNW 1022,7 - 0,0
24.03.2019 04:00:00 14,4 2,9 5 3 7 4 NW 1022,8 - 0,0
24.03.2019 03:00:00 16,1 2,5 6 3 14 7 SSW 1023,0 - 0,0
24.03.2019 02:00:00 15,8 1,9 11 6 19 10 W 1023,1 - 0,0
24.03.2019 01:00:00 16,3 2,3 9 5 21 11 NNW 1023,1 - 0,0
24.03.2019 00:00:00 17,2 2,4 16 9 25 13 NW 1023,0 - 0,0
23.03.2019 23:00:00 16,9 1,3 13 7 21 12 NW 1023,1 - 0,0
23.03.2019 22:00:00 17,7 1,2 15 8 29 16 WNW 1022,8 - 0,0
23.03.2019 21:00:00 19,0 1,5 15 8 31 17 WNW 1022,7 - 0,0
23.03.2019 20:00:00 20,2 1,6 16 9 32 17 NW 1022,1 - 0,0
23.03.2019 19:00:00 21,7 -0,4 18 10 37 20 WNW 1021,7 20 0,0
23.03.2019 18:00:00 24,2 -0,2 16 9 37 20 WNW 1021,6 - 0,0
23.03.2019 17:00:00 20,6 6,5 13 7 17 9 S 1021,8 - 0,0
23.03.2019 16:00:00 20,1 7,8 8 5 15 8 S 1022,3 - 0,0
23.03.2019 15:00:00 21,0 7,9 5 3 16 9 SE 1022,6 - 0,0
23.03.2019 14:00:00 21,7 5,1 5 3 14 8 NNE 1023,5 - 0,0
23.03.2019 13:00:00 24,1 2,8 11 6 29 15 NNW 1024,4 - 0,0
23.03.2019 12:00:00 23,5 3,4 15 8 29 16 NNW 1024,9 - 0,0
23.03.2019 11:00:00 22,3 3,4 14 8 31 17 NNW 1025,3 - 0,0
23.03.2019 10:00:00 19,9 4,0 14 8 28 15 NW 1025,8 20 0,0
23.03.2019 09:00:00 14,8 8,5 9 5 16 9 S 1025,7 - 0,0
23.03.2019 08:00:00 13,6 8,0 3 2 9 5 S 1025,9 - 0,0
23.03.2019 07:00:00 12,3 6,1 6 3 11 6 SE 1025,7 20 0,0
23.03.2019 06:00:00 12,7 3,4 5 3 9 5 SSE 1025,3 - 0,0
23.03.2019 05:00:00 12,8 5,7 5 3 11 6 ESE 1025,3 - 0,0
23.03.2019 04:00:00 11,5 0,6 11 6 14 7 WNW 1025,6 - 0,0
23.03.2019 03:00:00 12,0 0,1 3 2 14 8 W 1026,0 - 0,0
23.03.2019 02:00:00 11,4 -0,8 9 5 11 6 WNW 1026,2 - 0,0
23.03.2019 01:00:00 10,6 2,4 7 4 13 7 N 1026,4 - 0,0
23.03.2019 00:00:00 12,0 4,0 2 1 11 6 SSW 1026,5 - 0,0
22.03.2019 23:00:00 12,3 1,0 10 5 18 10 NW 1026,5 - 0,0
22.03.2019 22:00:00 13,3 3,6 16 9 23 12 SW 1026,5 - 0,0
22.03.2019 21:00:00 13,8 3,8 18 10 20 11 SW 1026,2 - 0,0
22.03.2019 20:00:00 14,3 3,1 15 8 16 9 WSW 1025,9 - 0,0
22.03.2019 19:00:00 15,1 2,6 9 5 11 6 SW 1026,0 18 0,0
22.03.2019 18:00:00 15,5 4,5 4 2 8 4 S 1026,0 - 0,0
22.03.2019 17:00:00 16,2 2,2 5 3 8 4 ESE 1026,1 - 0,0
22.03.2019 16:00:00 15,9 3,3 4 2 10 5 SE 1026,5 - 0,0
22.03.2019 15:00:00 15,4 5,3 7 4 11 6 SSE 1027,2 - 0,0
22.03.2019 14:00:00 15,1 6,4 6 3 11 6 S 1027,8 - 0,0
22.03.2019 13:00:00 14,7 5,5 6 3 10 5 SSE 1028,7 - 0,0
22.03.2019 12:00:00 14,6 6,2 6 3 9 5 SE 1029,2 - 0,0
22.03.2019 11:00:00 13,8 2,7 4 2 8 5 ESE 1029,1 - 0,0
22.03.2019 10:00:00 13,2 4,3 5 3 11 6 ESE 1029,0 20 0,0
22.03.2019 09:00:00 14,0 1,9 3 2 13 7 N 1028,9 - 0,0
22.03.2019 08:00:00 10,5 0,2 10 5 17 9 WNW 1028,5 - 0,0
22.03.2019 07:00:00 9,5 -1,0 13 7 18 10 NNW 1028,2 20 0,0
22.03.2019 06:00:00 9,0 -0,3 12 7 20 11 NNW 1027,8 - 0,0
22.03.2019 05:00:00 8,5 -0,3 14 8 20 11 NNW 1027,7 - 0,0
22.03.2019 04:00:00 8,7 3,5 13 7 18 10 N 1027,9 - 0,0
22.03.2019 03:00:00 8,7 0,6 11 6 19 10 N 1027,8 - 0,0
22.03.2019 02:00:00 8,9 3,3 13 7 17 9 NNW 1028,0 - 0,0
22.03.2019 01:00:00 9,8 2,4 8 4 11 6 N 1028,0 - 0,0
22.03.2019 00:00:00 10,5 1,3 5 3 9 5 N 1027,9 - 0,0
21.03.2019 23:00:00 10,6 2,2 3 2 11 6 SSW 1027,8 - 0,0
21.03.2019 22:00:00 11,5 -0,3 9 5 15 8 SW 1027,8 - 0,0
21.03.2019 21:00:00 11,2 0,9 15 8 23 12 WSW 1027,5 - 0,0
21.03.2019 20:00:00 11,4 2,1 18 10 21 11 WSW 1027,1 - 0,0
21.03.2019 19:00:00 11,8 3,5 12 7 16 9 SW 1027,0 - 0,0
21.03.2019 18:00:00 12,4 4,1 10 6 16 9 S 1026,9 - 0,0
21.03.2019 17:00:00 12,7 3,9 12 7 20 11 S 1027,0 - 0,0
21.03.2019 16:00:00 13,4 4,0 14 8 21 11 S 1027,4 - 0,0
21.03.2019 15:00:00 13,0 2,8 17 9 28 15 SSE 1027,9 - 0,0
21.03.2019 14:00:00 12,7 1,4 22 12 35 19 ESE 1028,1 - 0,0
21.03.2019 13:00:00 13,3 0,0 22 12 34 19 E 1028,4 - 0,0
21.03.2019 12:00:00 14,6 0,4 6 4 22 12 N 1029,0 - 0,0
21.03.2019 11:00:00 13,6 -0,1 10 5 21 12 N 1029,3 - 0,0
21.03.2019 10:00:00 12,6 1,0 14 8 32 17 N 1029,5 - 0,0
21.03.2019 09:00:00 11,1 -0,1 18 10 31 17 N 1029,2 - 0,0
21.03.2019 08:00:00 9,7 -2,0 15 8 29 16 NW 1028,9 - 0,0
21.03.2019 07:00:00 8,1 -2,6 16 9 26 14 NW 1028,5 25 0,0
21.03.2019 06:00:00 8,5 -2,5 14 8 23 12 NW 1028,0 - 0,0
21.03.2019 05:00:00 8,4 -2,3 14 7 25 13 NW 1028,0 - 0,0
21.03.2019 04:00:00 8,6 -2,1 13 7 27 14 NW 1028,0 20 0,0
21.03.2019 03:00:00 9,1 -1,9 16 8 30 16 NW 1028,3 - 0,0
21.03.2019 02:00:00 9,4 -2,3 18 10 32 17 NW 1028,7 - 0,0
21.03.2019 01:00:00 10,2 -1,5 17 9 37 20 NW 1028,8 - 0,0
21.03.2019 00:00:00 10,9 -1,9 18 10 36 20 NW 1029,0 - 0,0
20.03.2019 23:00:00 11,1 -2,0 19 11 38 21 NW 1028,9 - 0,0
20.03.2019 22:00:00 11,9 -2,4 27 14 61 33 NW 1028,6 - 0,0
20.03.2019 21:00:00 12,2 -2,8 29 16 51 27 NW 1028,3 - 0,0
20.03.2019 20:00:00 12,4 -2,3 21 11 49 26 NW 1028,0 - 0,0
20.03.2019 19:00:00 13,2 -4,0 28 15 58 31 WNW 1027,2 25 0,0
20.03.2019 18:00:00 14,5 -2,9 29 16 56 30 NW 1027,0 - 0,0
20.03.2019 17:00:00 15,6 -2,4 29 15 56 30 WNW 1026,7 - 0,0
20.03.2019 16:00:00 16,2 -2,8 22 12 51 28 NW 1027,0 - 0,0
20.03.2019 15:00:00 15,8 -3,7 23 13 47 25 NW 1027,5 - 0,0
20.03.2019 14:00:00 15,6 -3,9 17 9 40 21 NW 1028,2 - 0,0
20.03.2019 13:00:00 15,1 -4,3 16 9 36 19 NW 1029,0 - 0,0
20.03.2019 12:00:00 14,2 -3,2 20 11 39 21 NW 1029,4 - 0,0
20.03.2019 11:00:00 13,3 -2,3 22 12 41 22 NW 1029,5 - 0,0
20.03.2019 10:00:00 11,8 -1,4 19 11 45 24 NW 1029,7 30 0,0
20.03.2019 09:00:00 10,0 -0,5 23 12 43 23 NW 1029,3 - 0,0
20.03.2019 08:00:00 8,2 0,4 21 11 45 25 NW 1029,0 - 0,0

tt = temperature
td = dewpoint
ff = wind speed
fx = gusts
dd = wind direction
ppp = reduced air pressure
vv = visibility
rr = precipitation

Next stations